Clarksville, TN

7:27 PM CST on December 11, 2017 (GMT -0600)
Outlaw

Weather History for KCKV - September, 2012

Change the Weather History Date:

Friday, September 14, 2012

  Actual Average Record
Temperature  
Mean Temperature 72 °F 71 °F  
Max Temperature 83 °F 83 °F 99 °F (1980)
Min Temperature 61 °F 59 °F 40 °F (1975)
Degree Days  
Heating Degree Days 0    
Month to date heating degree days 0  
Since 1 July heating degree days 0  
Cooling Degree Days 7    
Month to date cooling degree days 125  
Year to date cooling degree days  
Growing Degree Days 21 (Base 50)    
Moisture  
Dew Point 63 °F    
Average Humidity 74    
Maximum Humidity 93    
Minimum Humidity 55    
Precipitation  
Precipitation 0.01 in 0.13 in 5.80 in (1979)
Month to date precipitation 2.68 1.57  
Year to date precipitation 34.70  
Sea Level Pressure  
Sea Level Pressure 30.22 in    
Wind  
Wind Speed 3 mph (NNW)    
Max Wind Speed 16 mph    
Max Gust Speed 20 mph    
Visibility 9 miles    
Events Rain    
T = Trace of Precipitation, MM = Missing Value Source: NWS Daily Summary

Daily Weather History Graph

Daily Weather History Graph

Search for Another Location

Airport or City:

Trip Planner

Search our weather history database for the weather conditions in past years. The results will help you decide how hot, cold, wet, or windy it might be!

Date:

Astronomy

Sep. 14, 2012 Rise Set
Actual Time 6:31 AM CDT 6:57 PM CDT
Civil Twilight 6:05 AM CDT 7:23 PM CDT
Nautical Twilight 5:35 AM CDT 7:54 PM CDT
Astronomical Twilight 5:04 AM CDT 8:25 PM CDT
Moon 4:56 AM CDT (9/14) 5:54 PM CDT (9/14)
Length of Visible Light 13h 18m
Length of Day
12h 26m
Waning Crescent, 2% of the Moon is Illuminated
Sep 14
Waning Crescent
Sep 15
New
Sep 22
First Quarter
Sep 29
Full
Oct 8
Last Quarter

Hourly Weather History & Observations

Time (CDT) Temp. Heat Index Dew Point Humidity Pressure Visibility Wind Dir Wind Speed Gust Speed Precip Events Conditions
12:52 AM 66.9 °F - 61.0 °F 81% 30.22 in 10.0 mi Calm Calm - N/A   Overcast
1:52 AM 64.9 °F - 60.1 °F 84% 30.21 in 9.0 mi SE 3.5 mph - N/A   Scattered Clouds
2:52 AM 64.0 °F - 60.1 °F 87% 30.21 in 10.0 mi Calm Calm - N/A   Mostly Cloudy
3:52 AM 64.9 °F - 61.0 °F 87% 30.20 in 10.0 mi Calm Calm - N/A   Overcast
4:52 AM 63.0 °F - 61.0 °F 93% 30.20 in 9.0 mi SE 4.6 mph - N/A   Mostly Cloudy
5:52 AM 62.1 °F - 59.0 °F 90% 30.21 in 8.0 mi Calm Calm - N/A   Clear
6:52 AM 62.1 °F - 59.0 °F 90% 30.22 in 6.0 mi Calm Calm - N/A   Scattered Clouds
7:52 AM 66.0 °F - 62.1 °F 87% 30.23 in 7.0 mi Calm Calm - N/A   Clear
8:52 AM 70.0 °F - 62.1 °F 76% 30.24 in 10.0 mi Calm Calm - N/A   Partly Cloudy
9:52 AM 75.0 °F - 63.0 °F 66% 30.24 in 10.0 mi Calm Calm - N/A   Clear
10:52 AM 78.1 °F - 64.0 °F 62% 30.24 in 10.0 mi South 4.6 mph - N/A   Clear
11:52 AM 80.1 °F 81.9 °F 64.9 °F 60% 30.23 in 10.0 mi Calm Calm - N/A   Clear
2:52 PM 72.0 °F - 64.9 °F 78% 30.21 in 10.0 mi West 16.1 mph - 0.01 in Rain Light Rain
3:01 PM 69.8 °F - 64.4 °F 83% 30.22 in 10.0 mi West 9.2 mph - 0.00 in Rain Light Rain
3:52 PM 72.0 °F - 66.0 °F 81% 30.20 in 10.0 mi SSW 4.6 mph - 0.00 in Rain Light Rain
4:52 PM 73.9 °F - 64.9 °F 73% 30.20 in 10.0 mi Calm Calm - 0.00 in   Scattered Clouds
5:52 PM 73.9 °F - 66.0 °F 76% 30.21 in 10.0 mi SW 3.5 mph - N/A   Partly Cloudy
6:52 PM 73.0 °F - 66.9 °F 81% 30.21 in 10.0 mi Calm Calm - N/A   Mostly Cloudy
7:47 PM 69.8 °F - 64.4 °F 83% 30.22 in 10.0 mi NNE 9.2 mph - N/A   Scattered Clouds
7:52 PM 70.0 °F - 64.9 °F 84% 30.22 in 10.0 mi North 10.4 mph - N/A   Partly Cloudy
8:52 PM 66.9 °F - 63.0 °F 87% 30.23 in 7.0 mi North 5.8 mph - N/A   Clear
9:52 PM 66.0 °F - 62.1 °F 87% 30.24 in 7.0 mi North 4.6 mph - N/A   Clear
10:52 PM 64.0 °F - 62.1 °F 93% 30.24 in 6.0 mi NNE 5.8 mph - N/A   Clear
11:52 PM 64.0 °F - 61.0 °F 90% 30.24 in 5.0 mi North 4.6 mph - N/A   Clear